This demonstration page uses our WeatherBlox Daily Observations layout. Learn more.

Left ArrowRight Arrow

Hourly Observations for September 24, 2020

Temp ( °F °C ) Dew Point ( °F °C ) Humidity (%) Winds ( mph kmh ) Pressure ( in mb ) Visibility ( mi km ) Precip ( " mm )
12:54 am 00:54 Clear 64 17.8 59 15 84 84 S 8 13 29.88 1012 6 9.65604 0 0
1:54 am 01:54 Clear 66 18.9 59 15 78 78 S 8 13 29.86 1011 6 9.65604 0 0
2:54 am 02:54 Clear 66 18.9 59 15 78 78 S 8 13 29.85 1011 6 9.65604 0 0
3:54 am 03:54 Clear 66 18.9 59 15 78 78 S 9 15 29.83 1010 6 9.65604 0 0
4:54 am 04:54 Clear 66 18.9 59 15 78 78 S 10 17 29.83 1010 6 9.65604 0 0
5:54 am 05:54 Clear 64 17.8 58 14.4 81 81 S 7 11 29.83 1010 6 9.65604 0 0
6:54 am 06:54 Clear 62 16.7 57 13.9 84 84 SSW 3 6 29.84 1011 6 9.65604 0 0
7:54 am 07:54 Sunny 62 16.7 57 13.9 84 84 SSW 5 7 29.85 1011 4 6.43736 0 0
8:54 am 08:54 Sunny 64 17.8 58 14.4 81 81 SW 7 11 29.86 1011 4 6.43736 0 0
9:54 am 09:54 Sunny 68 20 59 15 73 73 WSW 10 17 29.86 1011 10 16.0934 0 0
10:54 am 10:54 Sunny 73 22.8 60 15.6 64 64 WSW 7 11 29.86 1011 10 16.0934 0 0
11:54 am 11:54 Sunny 76 24.4 60 15.6 58 58 Calm 29.85 1011 N/A 0 0
12:54 pm 12:54 Sunny 79 26.1 61 16.1 54 54 SE 6 9 29.83 1010 10 16.0934 0 0
1:54 pm 13:54 Sunny 81 27.2 60 15.6 49 49 VRB 6 9 29.81 1009 10 16.0934 0 0
2:54 pm 14:54 Sunny 82 27.8 61 16.1 49 49 VRB 3 6 29.78 1009 10 16.0934 0 0
3:54 pm 15:54 Sunny 85 29.4 60 15.6 43 43 VRB 6 9 29.77 1008 10 16.0934 0 0
4:54 pm 16:54 Sunny 86 30 59 15 40 40 Calm 29.76 1008 10 16.0934 0 0
5:54 pm 17:54 Sunny 87 30.6 58 14.4 37 37 W 3 6 29.76 1008 10 16.0934 0 0
6:54 pm 18:54 Sunny 82 27.8 60 15.6 47 47 Calm 29.75 1008 10 16.0934 0 0
7:54 pm 19:54 Clear 76 24.4 60 15.6 58 58 Calm 29.76 1008 10 16.0934 0 0
8:54 pm 20:54 Clear 70 21.1 59 15 68 68 Calm 29.77 1008 9 14.48406 0 0
9:54 pm 21:54 Clear 67 19.4 59 15 76 76 Calm 29.77 1008 9 14.48406 0 0
10:54 pm 22:54 Clear 63 17.2 58 14.4 84 84 Calm 29.77 1008 7 11.26538 0 0
11:54 pm 23:54 Clear 63 17.2 58 14.4 84 84 Calm 29.76 1008 8 12.87472 0 0

Powered by AerisWeather